User: anonymous
Location: Montr�al
(45.5000°N, 73.5830°W)
Time: 07:49:24
(UTC-04:00)
Language:

Cosmos 1470 Rocket - Orbit

View from above orbital plane
View from above orbital plane
View from above satellite
View from above satellite

Ground track
Ground track

The orbit data is extracted from the following two-line orbital elements,

1 14148U 83061B   14261.74562150  .00000347  00000-0  39932-4 0  7475
2 14148 082.5179 128.2571 0022439 039.9114 027.7793 14.82718925686265
Epoch (UTC): 18 September 2014 17:53:41
Eccentricity: 0.0022439
inclination: 82.5179°
perigee height: 605 km
apogee height: 636 km
right ascension of ascending node: 128.2571°
argument of perigee: 39.9114°
revolutions per day: 14.82718925
mean anomaly at epoch: 27.7793°
orbit number at epoch: 68626

The dashed part of the orbit path shows where the satellite is in the earth's shadow,  

DLR